Theta_e
323 323 323 323 323 322 322 321 321 320 319 318 317 317 317 318 319 318 318 319 319 318 317 316 315 315 316 317 317 318 318 318 318 318 318 318 318 318 317 317 316 315
322 323 323 322 322 321 321 320 320 319 319 318 318 318 318 318 318 318 317 318 318 317 317 316 315 314 313 314 314 314 315 314 314 314 315 315 315 315 315 315 314 313
320 321 320 320 319 319 318 318 318 319 318 318 318 317 317 317 317 317 317 316 316 315 315 315 314 314 313 313 313 313 313 313 312 312 312 312 312 312 311 311 310 310
318 318 317 317 317 317 316 317 317 318 317 317 317 317 316 315 315 314 314 313 313 313 313 313 313 313 312 312 312 312 312 313 312 312 311 311 311 310 310 309 309 309
316 316 316 315 316 316 316 317 317 317 317 316 315 314 313 312 311 311 311 310 310 310 310 310 311 311 311 310 310 311 311 311 311 311 310 310 310 310 309 309 308 308
316 316 316 316 316 315 315 315 315 314 314 313 312 311 311 310 309 309 309 309 309 309 309 309 309 309 309 309 309 309 309 309 309 308 308 308 308 308 308 308 307 307
316 316 315 315 314 313 312 311 311 311 310 310 309 309 309 308 308 307 307 307 307 308 307 307 308 308 308 308 308 308 308 308 307 306 306 306 306 306 306 306 306 306
314 313 312 312 311 310 309 309 309 309 308 308 307 307 307 306 306 306 306 306 306 306 306 306 306 306 306 307 307 307 307 306 306 305 304 304 304 304 304 303 303 303
310 310 309 309 308 308 308 308 307 307 307 307 306 306 306 305 305 305 305 305 304 304 303 303 303 303 304 304 304 304 304 304 303 303 303 302 302 301 300 300 300 299
308 308 308 308 307 307 307 306 306 306 306 306 305 305 305 304 304 304 303 302 302 301 301 300 300 300 300 300 300 300 300 300 300 300 300 300 299 298 298 298 298 297
307 307 307 307 306 306 306 306 306 305 305 304 304 304 303 303 302 301 300 299 299 298 298 298 298 298 297 297 297 297 297 297 297 297 297 297 297 297 297 297 296 296
306 306 306 305 305 305 305 305 305 304 304 303 303 302 301 300 299 298 297 297 296 296 296 296 295 295 295 295 295 295 295 295 295 295 295 295 295 295 295 295 295 294
305 305 305 305 304 304 304 304 303 303 302 301 300 299 298 297 297 296 296 295 295 294 294 294 294 294 294 294 294 293 293 293 293 293 293 293 293 293 293 293 293 293
304 304 304 304 304 303 303 302 301 300 299 298 297 296 296 295 295 295 294 294 294 293 293 293 293 293 293 293 293 293 293 293 293 293 292 292 292 292 292 292 292 291
303 303 303 303 302 302 301 300 298 298 297 296 295 295 294 294 294 294 294 293 293 293 293 293 293 293 293 293 293 292 292 292 292 292 292 292 291 291 291 291 290 290
302 302 301 300 300 299 298 297 296 296 295 295 294 294 294 294 293 293 293 293 293 293 293 293 293 292 292 292 292 292 292 291 291 291 291 290 290 290 290 290 290 289
300 299 299 298 297 297 296 295 295 295 294 294 294 294 293 293 293 293 293 293 293 293 292 292 292 292 291 291 291 291 290 290 290 290 290 289 289 289 289 289 289 289
297 297 296 296 295 295 295 294 294 294 294 294 294 293 293 293 293 293 293 293 293 292 292 291 291 291 290 290 290 289 289 289 289 289 289 289 289 289 288 288 288 288
296 295 295 295 294 294 294 294 293 294 293 293 293 293 293 293 293 292 292 292 292 291 291 291 290 290 290 289 289 289 289 289 288 288 288 288 288 288 288 288 288 288
295 295 294 294 294 294 293 293 293 293 293 293 293 293 292 292 292 291 291 291 291 291 290 290 290 289 289 288 288 288 288 288 288 288 287 287 287 287 287 287 287 287
294 294 294 294 293 293 293 293 293 293 293 293 292 292 292 291 291 291 290 290 290 290 289 289 289 288 288 288 287 287 287 287 287 287 287 287 287 287 287 287 287 287
294 294 293 293 293 293 293 293 293 292 292 292 291 291 291 291 290 290 290 289 289 289 288 288 288 287 287 287 287 286 286 286 286 286 286 286 286 287 287 287 287 287
293 293 293 293 293 293 293 292 292 292 291 291 290 290 290 290 290 289 289 288 288 287 287 287 286 286 286 286 285 285 285 285 285 285 285 286 286 286 286 286 286 286
293 293 293 292 292 292 292 291 291 291 291 290 290 290 290 289 289 288 288 287 287 286 286 286 285 285 285 285 284 284 284 284 284 285 286 286 286 286 285 285 285 284
292 292 292 292 291 291 291 290 290 290 290 290 290 289 289 289 288 288 287 286 286 285 285 285 284 284 284 284 283 284 284 284 284 285 285 285 284 284 284 284 283 283
291 291 291 291 291 290 290 290 290 290 289 289 289 289 288 288 287 286 286 285 284 284 284 283 283 283 283 283 283 283 283 283 284 283 283 283 282 282 283 283 283 282
Wind_Speed
20 20 19 18 17 15 13 12 12 11 10 9 7 6 4 4 6 7 7 7 7 9 10 10 9 9 11 11 12 13 13 13 14 15 15 16 17 18 19 21 21 23
20 19 19 17 16 15 14 13 11 10 9 7 6 5 5 6 7 7 6 6 6 8 9 10 11 10 10 10 10 11 11 12 13 14 13 14 14 15 16 17 18 19
20 19 18 17 16 15 13 11 10 9 8 7 6 7 7 9 9 9 9 9 9 9 10 10 11 11 10 10 9 9 10 12 12 12 13 14 15 15 16 17 18 19
19 17 15 14 12 10 8 8 8 8 8 8 8 9 10 10 11 11 10 10 10 10 11 11 11 10 10 9 9 9 9 10 11 11 12 14 15 15 15 16 17 19
15 13 11 10 10 9 8 8 8 8 8 9 9 9 9 9 8 8 7 8 8 8 9 9 9 8 8 8 8 8 9 10 11 11 12 13 14 14 15 17 18 20
12 10 9 9 10 9 9 9 9 9 9 8 8 7 7 6 5 5 5 5 5 5 6 6 6 6 6 6 6 7 8 9 10 10 11 13 14 14 15 17 18 20
13 12 11 10 9 9 9 9 8 7 7 5 5 5 4 3 2 2 2 3 3 4 4 4 4 4 5 6 6 6 7 8 8 9 10 11 13 14 14 15 17 19
14 13 12 11 10 9 9 8 7 5 5 4 3 2 2 2 3 4 5 4 4 4 4 4 3 3 2 3 4 5 5 6 7 8 9 11 12 13 14 15 16 19
13 12 11 10 10 10 9 8 7 7 7 6 6 5 6 7 8 9 9 9 9 8 8 8 8 8 7 6 5 6 6 5 6 7 8 10 11 13 14 15 16 18
13 12 12 12 11 11 11 11 10 10 10 9 9 9 9 10 11 12 12 12 12 12 12 12 12 12 12 12 11 11 11 11 12 12 12 14 14 16 16 17 18 19
14 14 14 14 14 13 13 13 12 12 12 12 12 12 12 13 13 13 13 14 14 14 14 14 14 14 14 14 14 14 14 14 15 16 16 17 17 18 18 19 20 21
16 16 16 16 15 15 15 15 14 14 14 14 15 14 14 14 14 14 14 14 14 14 14 14 14 14 14 14 14 14 15 15 16 17 17 18 19 20 20 21 21 22
18 17 17 17 17 17 17 16 16 16 16 16 15 15 15 15 14 14 13 13 13 14 14 14 14 14 14 14 15 15 16 16 17 18 19 20 21 22 22 23 23 24
20 19 18 18 18 18 18 18 18 17 16 16 15 15 15 14 13 13 13 13 13 14 14 14 14 14 14 14 15 15 16 17 18 19 20 20 20 21 22 22 23 24
21 20 20 20 19 19 19 18 18 17 16 15 14 14 13 13 12 12 12 13 13 13 13 13 13 14 14 15 15 15 16 16 17 18 19 20 20 21 21 21 23 24
22 22 21 21 20 20 19 18 17 16 15 14 13 13 13 12 11 11 12 12 13 13 13 13 13 14 14 14 14 15 15 16 16 17 18 19 21 22 22 22 22 23
24 23 22 21 21 20 19 17 16 15 14 13 13 12 12 11 11 11 12 12 13 13 13 13 13 13 13 13 13 13 14 15 16 17 17 18 20 22 23 24 24 24
24 24 23 22 20 19 18 16 15 14 13 12 12 12 11 11 11 11 12 12 13 13 13 13 13 12 12 12 12 12 13 15 15 17 18 19 20 21 23 24 25 26
24 24 22 21 19 17 16 15 13 12 12 11 11 11 11 11 11 11 12 12 12 13 12 12 11 11 12 12 12 12 13 14 15 16 18 19 20 22 23 24 26 28
23 22 21 19 17 16 14 13 12 12 12 11 11 11 10 11 11 11 11 11 12 12 12 11 11 11 12 13 13 14 15 16 17 18 19 21 22 23 25 26 26 28
22 20 19 17 16 14 13 12 12 11 11 11 10 10 10 10 11 11 11 11 11 11 11 11 11 12 14 15 16 17 18 19 20 21 23 24 26 26 27 27 28 28
20 19 18 16 14 13 12 12 12 11 11 10 10 10 10 10 10 10 10 10 11 11 12 12 13 14 15 16 17 18 19 20 22 24 25 27 29 29 29 29 29 29
18 17 16 15 14 13 13 12 11 11 10 10 10 9 9 10 9 10 11 11 12 12 12 13 14 15 15 16 17 18 19 21 23 25 27 29 31 31 32 33 32 31
17 16 16 15 14 13 13 12 11 10 10 9 9 8 9 9 10 10 11 12 12 12 12 12 13 14 14 16 17 18 20 22 24 26 28 29 32 34 35 36 35 34
17 16 15 15 14 13 13 12 10 10 9 8 8 8 8 9 9 10 11 11 11 11 11 11 12 14 16 17 19 20 21 22 23 25 28 30 33 36 38 39 38 36
17 16 15 14 14 13 12 11 10 9 8 7 7 7 8 8 9 10 10 11 11 12 12 12 14 17 18 19 20 21 21 22 22 24 27 30 33 34 36 39 40 39
Wind_Direction
203 203 206 208 210 213 212 212 219 226 231 236 241 251 264 280 291 291 284 280 279 287 300 307 301 285 276 275 278 278 279 282 286 290 293 291 291 290 287 286 284 281
198 198 200 202 204 206 207 207 213 220 222 225 231 238 248 255 263 271 278 276 273 276 282 289 298 300 297 297 300 299 297 296 292 290 292 295 296 297 297 297 295 292
197 197 198 200 201 201 200 198 202 209 212 215 225 233 239 245 252 263 273 275 274 277 279 282 289 293 295 297 300 304 305 307 309 306 300 298 296 296 295 295 296 295
190 193 193 192 188 183 178 179 188 199 208 219 230 238 244 251 257 261 265 269 271 272 275 278 281 282 285 286 287 293 296 301 308 309 305 303 301 299 298 299 299 297
179 179 174 167 167 172 180 189 197 207 218 228 237 245 253 258 264 269 272 275 274 274 275 276 276 276 279 283 284 286 289 292 295 297 298 299 300 302 304 305 303 300
166 167 164 165 172 183 193 198 206 215 222 231 238 247 258 263 272 282 288 294 294 294 289 284 282 282 286 294 291 285 284 289 293 294 295 296 297 301 305 306 305 304
171 176 179 183 187 192 196 198 204 210 212 221 229 239 250 258 280 319 335 333 326 322 319 308 299 294 292 296 294 288 281 283 289 293 295 297 299 301 303 304 304 303
177 181 182 186 188 188 189 186 184 183 178 174 177 182 163 117 90 79 70 60 52 36 26 24 20 10 341 315 301 296 288 283 288 294 298 300 301 303 304 303 302 301
173 173 173 174 174 173 170 165 158 150 141 134 131 127 113 102 93 88 84 79 76 70 66 64 60 57 49 39 27 11 5 354 337 328 324 322 322 323 321 318 316 313
162 162 165 163 160 156 151 145 138 129 126 124 121 116 107 101 96 91 88 83 78 72 67 63 58 54 49 43 38 29 23 17 10 3 357 351 347 343 339 334 330 326
157 158 158 153 147 143 136 132 128 123 122 120 116 111 104 99 93 87 82 76 70 64 59 55 50 45 41 36 31 26 20 15 10 5 0 355 350 346 342 338 334 332
153 151 149 143 139 135 131 128 125 122 120 116 112 108 101 95 88 82 76 69 65 60 56 51 46 41 36 31 26 21 16 11 6 1 357 354 350 347 344 340 337 336
147 145 143 139 135 132 129 127 124 122 119 115 110 105 98 92 85 79 74 68 63 59 55 50 44 37 32 28 22 17 12 8 3 360 356 354 352 349 348 344 341 339
143 142 139 136 134 132 129 127 124 121 117 111 107 102 96 90 85 79 74 68 62 56 52 47 40 34 28 23 18 12 9 4 0 358 354 352 351 348 347 345 341 339
141 140 138 135 133 131 128 126 122 117 114 110 105 100 94 89 84 78 72 66 60 55 49 43 37 31 24 18 13 7 4 1 358 355 351 347 346 345 345 343 340 338
140 139 136 134 132 130 127 125 121 119 118 112 106 99 92 85 80 74 68 62 57 53 46 40 36 30 23 16 9 3 359 357 354 352 350 346 342 342 342 342 341 337
139 137 135 134 133 131 128 126 125 125 120 112 105 96 89 83 76 69 63 56 52 48 42 37 33 28 23 15 8 1 354 352 352 349 348 346 342 340 339 338 337 335
139 138 137 136 134 132 130 128 128 125 116 108 100 91 84 78 70 64 59 54 50 47 42 38 33 28 24 16 8 2 354 350 350 348 345 345 343 339 336 335 333 332
142 141 139 137 134 131 129 127 126 119 109 101 93 86 81 75 68 61 57 54 52 50 45 40 36 29 23 18 10 4 359 355 352 348 345 343 341 338 336 334 332 330
144 143 139 136 132 129 128 126 119 110 101 95 89 86 82 76 71 65 60 57 54 54 49 41 35 28 20 16 12 7 3 359 354 349 345 342 340 339 336 334 333 331
145 142 138 134 131 130 126 120 112 105 101 96 91 87 81 76 73 69 66 61 55 54 51 42 34 27 20 15 11 8 2 358 354 349 346 343 341 341 338 336 336 334
144 142 138 133 132 130 124 118 114 110 107 100 95 92 85 81 76 70 66 62 55 51 47 42 33 26 21 15 10 6 0 357 353 349 347 344 342 342 341 339 338 337
143 141 138 135 134 130 126 123 120 116 112 107 104 99 91 85 76 67 62 57 53 49 42 37 31 25 19 11 7 4 360 357 353 350 347 345 342 341 340 338 337 336
143 142 140 137 137 134 130 127 124 119 114 108 103 94 85 80 73 66 60 54 53 51 43 34 27 22 15 9 7 5 2 360 357 351 348 344 340 336 334 332 332 332
144 144 143 140 138 135 132 129 124 118 111 103 98 89 78 73 68 63 59 56 56 52 46 37 25 17 13 10 10 8 5 4 360 353 346 341 336 333 330 329 329 329
147 146 144 142 139 135 132 128 123 118 113 104 97 89 79 71 64 61 59 59 57 49 42 33 21 15 12 9 8 9 7 3 358 352 346 339 335 333 331 329 329 329